EW2972 Weather Reports


Display with metric or nautical units.
time (UTC)temp
F
wind
direction
speed
MPH
gust
MPH
rain 1hr
in
rain 24hr
in
rain mn
in
humidity
%
barometer
mb
20210615013214 85 249 1.0 6.0 0.00 0.00 0.00 68 1013.6
20210615012713 85 254 1.0 3.0 0.00 0.00 0.00 68 1013.7
20210615012214 86 254 1.0 4.0 0.00 0.00 0.00 67 1013.7
20210615011711 86 253 2.0 4.0 0.00 0.00 0.00 67 1013.7
20210615011207 86 258 2.0 3.0 0.00 0.00 0.00 67 1013.6
20210615010710 86 259 2.0 6.0 0.00 0.00 0.00 66 1013.6
20210615010206 86 261 2.0 6.0 0.00 0.00 0.00 66 1013.5
20210615005707 86 265 2.0 4.0 0.00 0.00 0.00 66 1013.5
20210615005208 87 257 2.0 8.0 0.00 0.00 0.00 66 1013.5
20210615004720 87 257 3.0 8.0 0.00 0.00 0.00 65 1013.4
20210615004207 87 247 3.0 7.0 0.00 0.00 0.00 65 1013.5
20210615003714 87 259 2.0 7.0 0.00 0.00 0.00 65 1013.4
20210615003209 88 229 2.0 8.0 0.00 0.00 0.00 65 1013.4
20210615002708 88 257 2.0 8.0 0.00 0.00 0.00 64 1013.3
20210615002214 88 242 2.0 6.0 0.00 0.00 0.00 64 1013.3
20210615001713 89 235 2.0 6.0 0.00 0.00 0.00 64 1013.2
20210615001207 89 322 3.0 8.0 0.00 0.00 0.00 62 1013.3
20210615000709 90 244 3.0 8.0 0.00 0.00 0.00 60 1013.3
20210615000218 91 248 2.0 7.0 0.00 0.00 0.00 57 1013.2
20210614235714 92 79 0.0 2.0 0.00 0.00 0.00 56 1013.4
20210614235208 92 79 1.0 3.0 0.00 0.00 0.00 56 1013.3
20210614234708 92 115 1.0 4.0 0.00 0.00 0.00 56 1013.1
20210614234219 92 132 1.0 4.0 0.00 0.00 0.00 56 1013.2
20210614233712 92 58 0.0 2.0 0.00 0.00 0.00 55 1013.3
20210614233211 93 49 0.0 2.0 0.00 0.00 0.00 55 1013.2
20210614232716 93 47 1.0 4.0 0.00 0.00 0.00 54 1013.1
20210614232208 93 47 2.0 4.0 0.00 0.00 0.00 53 1013.2
20210614231707 93 97 2.0 4.0 0.00 0.00 0.00 53 1013.1
20210614231207 94 28 2.0 6.0 0.00 0.00 0.00 54 1013.2
20210614230709 94 22 2.0 6.0 0.00 0.00 0.00 53 1013.0
20210614230207 94 22 1.0 6.0 0.00 0.00 0.00 55 1013.1
20210614225720 94 29 1.0 5.0 0.00 0.00 0.00 55 1012.9
20210614225207 94 70 2.0 5.0 0.00 0.00 0.00 54 1013.0
20210614224705 94 68 2.0 6.0 0.00 0.00 0.00 53 1013.0
20210614224207 95 90 2.0 6.0 0.00 0.00 0.00 52 1012.9
20210614223708 95 51 2.0 7.0 0.00 0.00 0.00 52 1013.1
20210614223211 95 69 2.0 7.0 0.00 0.00 0.00 52 1013.2
20210614222712 96 111 2.0 8.0 0.00 0.00 0.00 51 1013.2
20210614222212 96 73 2.0 8.0 0.00 0.00 0.00 50 1013.2
20210614221712 95 138 2.0 8.0 0.00 0.00 0.00 53 1013.2
20210614221212 95 106 2.0 8.0 0.00 0.00 0.00 50 1013.1
20210614220640 95 102 3.0 10.0 0.00 0.00 0.00 50 1013.1
20210614220140 96 38 3.0 10.0 0.00 0.00 0.00 51 1013.2
20210614215641 97 11 3.0 9.0 0.00 0.00 0.00 50 1013.3
20210614215136 96 86 3.0 9.0 0.00 0.00 0.00 51 1013.2
20210614214635 97 43 3.0 9.0 0.00 0.00 0.00 51 1013.4
20210614214135 97 35 3.0 11.0 0.00 0.00 0.00 50 1013.4
20210614213639 97 15 3.0 11.0 0.00 0.00 0.00 50 1013.4
20210614213137 97 0 3.0 10.0 0.00 0.00 0.00 50 1013.4
20210614212639 96 38 3.0 8.0 0.00 0.00 0.00 51 1013.3
20210614212146 97 61 3.0 8.0 0.00 0.00 0.00 51 1013.3
20210614211639 97 94 4.0 10.0 0.00 0.00 0.00 50 1013.3
20210614211136 97 29 4.0 11.0 0.00 0.00 0.00 50 1013.3
20210614210636 97 42 5.0 12.0 0.00 0.00 0.00 49 1013.5
20210614210141 97 39 5.0 12.0 0.00 0.00 0.00 50 1013.5
20210614205635 97 355 3.0 10.0 0.00 0.00 0.00 51 1013.5
20210614205134 96 35 2.0 7.0 0.00 0.00 0.00 52 1013.6
20210614204639 97 44 2.0 7.0 0.00 0.00 0.00 50 1013.7
20210614204136 97 38 3.0 9.0 0.00 0.00 0.00 50 1013.7
20210614203639 97 35 4.0 13.0 0.00 0.00 0.00 51 1013.7
20210614203142 98 41 5.0 13.0 0.00 0.00 0.00 49 1013.6
20210614202641 97 302 3.0 12.0 0.00 0.00 0.00 48 1013.6
20210614202137 96 9 3.0 9.0 0.00 0.00 0.00 52 1013.7
20210614201638 96 11 5.0 13.0 0.00 0.00 0.00 50 1013.8
20210614201136 96 33 6.0 13.0 0.00 0.00 0.00 50 1013.9
20210614200642 97 19 4.0 12.0 0.00 0.00 0.00 50 1014.1
20210614200133 97 35 3.0 12.0 0.00 0.00 0.00 50 1014.1
20210614195641 97 55 3.0 9.0 0.00 0.00 0.00 50 1014.1
20210614195135 97 57 3.0 11.0 0.00 0.00 0.00 50 1014.1
20210614194635 97 13 4.0 11.0 0.00 0.00 0.00 50 1014.1
20210614194132 97 59 4.0 11.0 0.00 0.00 0.00 50 1014.1
20210614193638 96 338 4.0 11.0 0.00 0.00 0.00 51 1014.2
20210614193136 96 94 4.0 10.0 0.00 0.00 0.00 50 1014.2
20210614192633 96 109 5.0 13.0 0.00 0.00 0.00 53 1014.1
20210614192136 97 28 6.0 13.0 0.00 0.00 0.00 51 1014.3
20210614191635 98 12 4.0 12.0 0.00 0.00 0.00 50 1014.4
20210614191135 97 101 3.0 10.0 0.00 0.00 0.00 51 1014.3
20210614190638 96 309 4.0 10.0 0.00 0.00 0.00 53 1014.5
20210614190139 96 263 5.0 10.0 0.00 0.00 0.00 50 1014.6
20210614185635 96 11 5.0 13.0 0.00 0.00 0.00 51 1014.7
20210614185136 96 22 4.0 13.0 0.00 0.00 0.00 51 1014.7
20210614184636 96 19 4.0 9.0 0.00 0.00 0.00 52 1014.7
20210614184137 96 339 3.0 9.0 0.00 0.00 0.00 52 1014.7
20210614183637 96 0 2.0 8.0 0.00 0.00 0.00 52 1014.8
20210614183138 96 38 4.0 9.0 0.00 0.00 0.00 53 1014.9
20210614182637 96 38 4.0 10.0 0.00 0.00 0.00 54 1015.0
20210614182136 96 12 3.0 10.0 0.00 0.00 0.00 50 1015.1
20210614181638 96 28 3.0 9.0 0.00 0.00 0.00 52 1015.2
20210614181136 95 69 3.0 8.0 0.00 0.00 0.00 51 1015.2
20210614180636 95 355 4.0 8.0 0.00 0.00 0.00 50 1015.3
20210614180135 96 355 4.0 13.0 0.00 0.00 0.00 53 1015.3
20210614175639 95 5 5.0 13.0 0.00 0.00 0.00 51 1015.4
20210614175133 95 321 5.0 11.0 0.00 0.00 0.00 51 1015.5
20210614174641 95 336 4.0 11.0 0.00 0.00 0.00 52 1015.5
20210614174136 95 25 4.0 9.0 0.00 0.00 0.00 51 1015.5
20210614173639 94 333 4.0 8.0 0.00 0.00 0.00 52 1015.5
20210614173138 95 302 3.0 8.0 0.00 0.00 0.00 51 1015.5
20210614172635 94 28 2.0 6.0 0.00 0.00 0.00 54 1015.5
20210614172137 94 47 3.0 8.0 0.00 0.00 0.00 53 1015.5
20210614171638 94 22 3.0 8.0 0.00 0.00 0.00 52 1015.5
20210614171136 94 347 3.0 8.0 0.00 0.00 0.00 55 1015.5
20210614170636 93 15 3.0 8.0 0.00 0.00 0.00 53 1015.5
20210614170140 94 355 4.0 9.0 0.00 0.00 0.00 55 1015.5
20210614165635 94 332 4.0 9.0 0.00 0.00 0.00 53 1015.6
20210614165138 94 331 2.0 5.0 0.00 0.00 0.00 52 1015.6
20210614164636 94 24 1.0 4.0 0.00 0.00 0.00 53 1015.6
20210614164137 93 82 2.0 6.0 0.00 0.00 0.00 54 1015.5
20210614163637 94 19 2.0 6.0 0.00 0.00 0.00 53 1015.5
20210614163138 93 106 1.0 5.0 0.00 0.00 0.00 53 1015.5
20210614162645 92 151 1.0 4.0 0.00 0.00 0.00 52 1015.4
20210614162142 93 26 2.0 4.0 0.00 0.00 0.00 54 1015.3
20210614161642 92 36 2.0 4.0 0.00 0.00 0.00 51 1015.2
20210614161140 92 297 3.0 7.0 0.00 0.00 0.00 52 1015.2
20210614160636 93 39 3.0 7.0 0.00 0.00 0.00 51 1015.2
20210614160132 93 0 2.0 6.0 0.00 0.00 0.00 48 1015.2
20210614155641 93 355 1.0 6.0 0.00 0.00 0.00 50 1015.1
20210614155131 92 24 2.0 4.0 0.00 0.00 0.00 53 1015.1
20210614154635 92 29 2.0 4.0 0.00 0.00 0.00 51 1015.2
20210614154132 92 30 1.0 4.0 0.00 0.00 0.00 50 1015.1
20210614153635 92 46 2.0 5.0 0.00 0.00 0.00 53 1015.2
20210614153136 91 339 2.0 5.0 0.00 0.00 0.00 53 1015.3
20210614152631 91 55 1.0 4.0 0.00 0.00 0.00 56 1015.3
20210614152131 91 34 1.0 4.0 0.00 0.00 0.00 56 1015.4
20210614151629 90 15 2.0 4.0 0.00 0.00 0.00 54 1015.3
20210614151130 90 17 2.0 4.0 0.00 0.00 0.00 55 1015.3
20210614150629 89 74 2.0 5.0 0.00 0.00 0.00 58 1015.3
20210614150128 89 24 1.0 5.0 0.00 0.00 0.00 59 1015.3
20210614145638 89 44 1.0 3.0 0.00 0.00 0.00 62 1015.3
20210614145134 88 55 1.0 2.0 0.00 0.00 0.00 63 1015.2
20210614144628 88 56 1.0 3.0 0.00 0.00 0.00 60 1015.4
20210614144130 87 53 1.0 3.0 0.00 0.00 0.00 62 1015.4
20210614143629 87 54 0.0 2.0 0.00 0.00 0.00 64 1015.4
20210614143140 86 51 0.0 2.0 0.00 0.00 0.00 65 1015.4
20210614142627 86 51 1.0 3.0 0.00 0.00 0.00 66 1015.4
20210614142128 87 49 1.0 4.0 0.00 0.00 0.00 66 1015.4
20210614141631 86 22 2.0 4.0 0.00 0.00 0.00 65 1015.4
20210614141129 86 22 2.0 4.0 0.00 0.00 0.00 65 1015.3
20210614140625 85 24 1.0 3.0 0.00 0.00 0.00 65 1015.2
20210614140129 85 25 1.0 3.0 0.00 0.00 0.00 65 1015.3
20210614135637 85 52 1.0 3.0 0.00 0.00 0.00 66 1015.2
20210614135124 84 52 2.0 3.0 0.00 0.00 0.00 65 1015.1
20210614134630 84 53 1.0 3.0 0.00 0.00 0.00 66 1015.3
20210614134125 84 59 1.0 3.0 0.00 0.00 0.00 67 1015.3
20210614133624 83 67 1.0 2.0 0.00 0.00 0.00 68 1015.2
20210614133127 83 67 0.0 2.0 0.00 0.00 0.00 69 1015.1
20210614132629 82 67 0.0 2.0 0.00 0.00 0.00 71 1015.1
20210614132126 82 67 1.0 2.0 0.00 0.00 0.00 71 1015.1
20210614131625 82 62 1.0 2.0 0.00 0.00 0.00 71 1015.1
20210614131123 82 62 1.0 2.0 0.00 0.00 0.00 72 1015.1
20210614130621 81 61 1.0 2.0 0.00 0.00 0.00 71 1015.1
20210614130124 81 61 1.0 2.0 0.00 0.00 0.00 74 1015.1
20210614125622 80 61 1.0 2.0 0.00 0.00 0.00 76 1015.0
20210614125122 80 62 1.0 2.0 0.00 0.00 0.00 78 1015.0
20210614124623 80 62 1.0 3.0 0.00 0.00 0.00 79 1015.2
20210614124118 80 62 1.0 3.0 0.00 0.00 0.00 79 1015.2
20210614123622 80 77 1.0 2.0 0.00 0.00 0.00 79 1015.3
20210614123121 79 77 0.0 1.0 0.00 0.00 0.00 80 1015.2
20210614122630 79 77 1.0 3.0 0.00 0.00 0.00 79 1015.2
20210614122118 79 77 1.0 3.0 0.00 0.00 0.00 80 1015.2
20210614121612 79 77 1.0 2.0 0.00 0.00 0.00 80 1015.1
20210614121112 79 77 1.0 3.0 0.00 0.00 0.00 80 1015.0
20210614120619 78 77 1.0 3.0 0.00 0.00 0.00 80 1015.1
20210614120114 79 77 1.0 3.0 0.00 0.00 0.00 80 1015.1
20210614115615 78 84 0.0 2.0 0.00 0.00 0.00 81 1015.0
20210614115119 78 84 0.0 2.0 0.00 0.00 0.00 80 1015.0
20210614114612 78 84 1.0 2.0 0.00 0.00 0.00 80 1015.0
20210614114117 78 84 0.0 2.0 0.00 0.00 0.00 81 1014.7
20210614113609 78 84 0.0 2.0 0.00 0.00 0.00 81 1014.7
20210614113108 78 84 1.0 2.0 0.00 0.00 0.00 81 1014.8
20210614112609 78 84 1.0 3.0 0.00 0.00 0.00 80 1014.6
20210614112110 78 84 1.0 4.0 0.00 0.00 0.00 80 1014.6
20210614111609 79 67 1.0 4.0 0.00 0.00 0.00 80 1014.5
20210614111109 79 65 1.0 3.0 0.00 0.00 0.00 80 1014.2
20210614110608 79 49 1.0 5.0 0.00 0.00 0.00 80 1014.1
20210614110112 79 28 1.0 5.0 0.00 0.00 0.00 80 1014.2
20210614105609 80 124 1.0 3.0 0.00 0.00 0.00 80 1014.0
20210614105113 80 124 1.0 3.0 0.00 0.00 0.00 80 1014.1
20210614104606 80 110 1.0 4.0 0.00 0.00 0.00 80 1014.1
20210614104109 80 144 1.0 6.0 0.00 0.00 0.00 81 1014.4
20210614103607 80 94 2.0 6.0 0.00 0.00 0.00 81 1014.6
20210614103107 80 115 1.0 5.0 0.00 0.00 0.00 81 1014.6
20210614102609 80 132 1.0 4.0 0.00 0.00 0.00 81 1014.5
20210614102109 80 67 1.0 4.0 0.00 0.00 0.00 81 1014.6
20210614101608 80 264 1.0 3.0 0.00 0.00 0.00 81 1014.4
20210614101112 80 264 0.0 2.0 0.00 0.00 0.00 81 1014.4
20210614100617 80 260 0.0 2.0 0.00 0.00 0.00 81 1014.0
20210614100110 80 260 0.0 1.0 0.00 0.00 0.00 81 1013.7
20210614095609 80 260 0.0 1.0 0.00 0.00 0.00 80 1013.6
20210614095117 80 260 0.0 1.0 0.00 0.00 0.00 80 1013.4
20210614094622 80 260 0.0 3.0 0.00 0.00 0.00 79 1013.4
20210614094114 81 260 1.0 3.0 0.00 0.00 0.00 79 1013.2
20210614093607 81 260 1.0 4.0 0.00 0.00 0.00 80 1013.1
20210614093109 81 259 2.0 4.0 0.00 0.00 0.00 80 1012.9
20210614092620 81 213 1.0 3.0 0.00 0.00 0.00 80 1013.0
20210614092117 81 213 0.0 2.0 0.00 0.00 0.00 80 1013.1
20210614091611 81 212 1.0 5.0 0.00 0.00 0.00 79 1013.1
20210614091108 81 213 2.0 5.0 0.00 0.00 0.00 80 1012.9
20210614090611 81 234 1.0 5.0 0.00 0.00 0.00 80 1012.7
20210614090109 81 165 0.0 4.0 0.00 0.00 0.00 80 1012.9
20210614085610 81 159 1.0 2.0 0.00 0.00 0.00 79 1013.2
20210614085112 81 159 1.0 5.0 0.00 0.00 0.00 79 1013.3
20210614084611 81 159 1.0 5.0 0.00 0.00 0.00 79 1013.4
20210614084112 82 130 1.0 3.0 0.00 0.00 0.00 78 1013.6
20210614083612 82 127 1.0 2.0 0.00 0.00 0.00 78 1013.9
20210614083108 82 135 1.0 2.0 0.00 0.00 0.00 78 1013.8
20210614082611 82 135 1.0 2.0 0.00 0.00 0.00 78 1014.0
20210614082108 82 135 1.0 2.0 0.00 0.00 0.00 77 1013.6
20210614081611 82 135 1.0 4.0 0.00 0.00 0.00 76 1013.7
20210614081110 83 135 1.0 4.0 0.00 0.00 0.00 76 1013.7
20210614080605 83 62 1.0 3.0 0.00 0.00 0.00 76 1014.0
20210614080112 83 97 2.0 7.0 0.00 0.00 0.00 77 1014.0
20210614075611 83 67 4.0 11.0 0.00 0.00 0.00 77 1014.1
20210614075119 82 29 3.0 11.0 0.00 0.00 0.00 77 1014.4
20210614074619 82 233 1.0 4.0 0.00 0.00 0.00 77 1014.2
20210614074110 82 232 2.0 4.0 0.00 0.00 0.00 77 1014.2
20210614073612 82 194 2.0 4.0 0.00 0.00 0.00 77 1014.3
20210614073111 82 161 2.0 4.0 0.00 0.00 0.00 78 1014.4
20210614072603 82 161 1.0 4.0 0.00 0.00 0.00 78 1014.4
20210614072103 82 160 1.0 2.0 0.00 0.00 0.00 78 1014.5
20210614071611 82 160 1.0 2.0 0.00 0.00 0.00 79 1014.6
20210614071105 82 160 1.0 2.0 0.00 0.00 0.00 79 1014.5
20210614070614 82 159 1.0 2.0 0.00 0.00 0.00 79 1014.5
20210614070103 83 159 2.0 4.0 0.00 0.00 0.00 79 1014.6
20210614065606 83 159 1.0 5.0 0.00 0.00 0.00 79 1014.6
20210614065118 83 159 1.0 5.0 0.00 0.00 0.00 80 1014.6
20210614064613 83 88 1.0 3.0 0.00 0.00 0.00 79 1014.7
20210614064110 83 78 0.0 2.0 0.00 0.00 0.00 80 1014.8
20210614063604 83 78 1.0 2.0 0.00 0.00 0.00 80 1014.8
20210614063111 83 77 1.0 3.0 0.00 0.00 0.00 80 1014.6
20210614062605 83 55 0.0 3.0 0.00 0.00 0.00 80 1014.7
20210614062110 83 11 0.0 1.0 0.00 0.00 0.00 80 1014.9
20210614061605 83 11 0.0 1.0 0.00 0.00 0.00 79 1014.9
20210614061110 83 11 0.0 1.0 0.00 0.00 0.00 79 1014.8
20210614060604 83 11 0.0 1.0 0.00 0.00 0.00 79 1014.9
20210614060108 83 11 0.0 1.0 0.00 0.00 0.00 79 1014.9
20210614055612 83 11 0.0 1.0 0.00 0.00 0.00 78 1014.8
20210614055108 83 11 0.0 0.0 0.00 0.00 0.00 78 1014.8
20210614054608 83 11 0.0 0.0 0.00 0.00 0.00 78 1014.9
20210614054106 83 11 0.0 1.0 0.00 0.00 0.00 77 1014.9
20210614053612 84 11 0.0 1.0 0.00 0.00 0.00 76 1014.8
20210614053103 84 11 0.0 1.0 0.00 0.00 0.00 76 1014.7
20210614052600 84 11 0.0 1.0 0.00 0.00 0.00 76 1014.7
20210614052057 84 11 0.0 1.0 0.00 0.00 0.00 76 1014.9
20210614051605 84 11 0.0 1.0 0.00 0.00 0.00 76 1014.9
20210614051053 84 11 0.0 1.0 0.00 0.00 0.00 76 1014.9
20210614050600 84 11 0.0 0.0 0.00 0.00 0.00 75 1014.8
20210614050050 84 11 0.0 1.0 0.00 0.00 0.00 75 1014.8
20210614045550 84 11 0.0 1.0 0.00 0.00 0.00 75 1014.7
20210614045051 84 11 0.0 1.0 0.00 0.00 0.00 74 1014.8
20210614044559 84 11 0.0 1.0 0.00 0.00 0.00 74 1014.6
20210614044050 85 11 0.0 1.0 0.00 0.00 0.00 74 1014.7
20210614043545 85 11 0.0 1.0 0.00 0.00 0.00 74 1014.7
20210614043045 85 11 0.0 2.0 0.00 0.00 0.00 73 1014.5
20210614042543 85 11 0.0 2.0 0.00 0.00 0.00 73 1014.4
20210614042050 85 11 0.0 2.0 0.00 0.00 0.00 73 1014.1
20210614041540 85 11 0.0 2.0 0.00 0.00 0.00 72 1014.0
20210614041043 85 11 0.0 1.0 0.00 0.00 0.00 72 1013.8
20210614040540 85 11 0.0 1.0 0.00 0.00 0.00 71 1013.7
20210614040040 86 11 0.0 1.0 0.00 0.00 0.00 71 1013.6
20210614035544 86 11 0.0 2.0 0.00 0.00 0.00 71 1013.6
20210614035036 85 11 0.0 2.0 0.00 0.00 0.00 71 1013.3
20210614034541 86 11 0.0 0.0 0.00 0.00 0.00 70 1013.1
20210614034037 86 11 0.0 0.0 0.00 0.00 0.00 71 1013.0
20210614033541 86 11 0.0 1.0 0.00 0.00 0.00 70 1012.9
20210614033040 86 11 0.0 1.0 0.00 0.00 0.00 69 1013.1
20210614032536 86 11 0.0 1.0 0.00 0.00 0.00 69 1013.1
20210614032039 86 11 0.0 1.0 0.00 0.00 0.00 69 1012.9
20210614031538 86 11 0.0 0.0 0.00 0.00 0.00 68 1012.9
20210614031036 87 11 0.0 0.0 0.00 0.00 0.00 68 1012.9
20210614030534 87 11 0.0 0.0 0.00 0.00 0.00 68 1012.9
20210614030033 87 11 0.0 1.0 0.00 0.00 0.00 67 1012.9
20210614025542 87 11 0.0 2.0 0.00 0.00 0.00 67 1012.8
20210614025032 87 11 0.0 2.0 0.00 0.00 0.00 67 1013.0
20210614024547 87 11 0.0 1.0 0.00 0.00 0.00 66 1012.9
20210614024037 87 11 0.0 1.0 0.00 0.00 0.00 65 1013.1
20210614023531 88 11 0.0 1.0 0.00 0.00 0.00 65 1013.0
20210614023027 88 11 0.0 1.0 0.00 0.00 0.00 64 1012.9
20210614022526 88 11 0.0 1.0 0.00 0.00 0.00 63 1012.9
20210614022030 89 11 0.0 2.0 0.00 0.00 0.00 62 1012.9
20210614021529 89 11 1.0 2.0 0.00 0.00 0.00 61 1012.9
20210614021027 89 11 1.0 2.0 0.00 0.00 0.00 60 1012.9
20210614020528 90 11 1.0 2.0 0.00 0.00 0.00 60 1012.9
20210614020029 90 11 1.0 3.0 0.00 0.00 0.00 59 1012.9
20210614015530 90 11 2.0 3.0 0.00 0.00 0.00 58 1012.8
20210614015026 90 11 1.0 3.0 0.00 0.00 0.00 57 1012.7
20210614014527 91 11 1.0 3.0 0.00 0.00 0.00 57 1012.8
20210614014022 91 11 1.0 3.0 0.00 0.00 0.00 56 1012.8